[[{"header":{"parameterUnit":"m.s-1","parameterCategory":1,"la1":30.2991,"la2":30.254,"lo1":-89.0895,"lo2":-89.0444,"dy":0.0017,"dx":0.0017,"nx":28,"ny":28,"refTime":"2025-05-23T09:00:00:Z","depth":0,"parameterNumber":2,"parameterNumberName":"U-component_of_WINDS"},"data":[0,0,0,0,0,0,0,0,0,0,0,0,0,0,0,0,0,0,0,0,0,0,0,0,0,0,0,0,0,0,0,0,0,0,0,0,0,0,0,0,0,0,0,0,0,0,0,0,0,0,0,0,0,0,0,0,0,0,-0.9543,-0.9542,0,-0.9419,-0.9417,-0.9416,-0.9343,-0.9342,-0.9342,-0.9342,-0.9213,-0.921,-0.9207,0,0,0,0,0,0,0,0,0,0,0,0,0,-0.9717,-0.9715,-0.9543,-0.9542,-0.954,-0.9419,-0.9417,-0.9415,-0.9343,-0.9342,-0.9342,-0.9342,-0.9214,-0.921,-0.9207,0,0,0,0,0,0,0,0,0,0,0,0,0,-0.9622,-0.9714,-0.9543,-0.9489,-0.9483,-0.9419,-0.9417,-0.9415,-0.9343,-0.9342,-0.9342,-0.9341,-0.9215,-0.9211,-0.9206,-0.9186,0,0,-0.9192,-0.919,0,0,0,0,0,0,0,0,-0.9628,-0.9616,-0.9499,-0.9493,-0.9486,-0.9396,-0.9431,-0.9338,-0.9343,-0.9396,-0.9342,-0.9341,-0.9274,-0.9265,-0.9242,-0.918,-0.9175,-0.9191,-0.9189,-0.9186,-0.9185,0,0,0,0,0,0,0,-0.9635,-0.9621,-0.9494,-0.9497,-0.9489,-0.9471,-0.9457,-0.9413,-0.9339,-0.9391,-0.9386,-0.9372,-0.9271,-0.9247,-0.9239,-0.9173,-0.9192,-0.9187,-0.9184,-0.9183,-0.9089,-0.9089,0,0,0,0,0,0,-0.965,-0.9627,-0.9498,-0.949,-0.9557,-0.9468,-0.9452,-0.9425,-0.9339,-0.9326,-0.9373,-0.9369,-0.9255,-0.9244,-0.9234,-0.9205,-0.9187,-0.9182,-0.9179,-0.9088,-0.9089,-0.9089,0,0,0,0,0,0,-0.9654,-0.9639,-0.9503,-0.9557,-0.9538,-0.9466,-0.9435,-0.9423,-0.9399,-0.9325,-0.9312,-0.9362,-0.9254,-0.9241,-0.9199,-0.9199,-0.918,-0.9176,-0.9088,-0.9089,-0.9089,-0.9147,0,0,0,0,0,0,-0.9659,-0.9641,-0.9633,-0.9557,-0.9536,-0.947,-0.9435,-0.9421,-0.9391,-0.9386,-0.9312,-0.9299,-0.9253,-0.9206,-0.9194,-0.9192,-0.9172,-0.9088,-0.9088,-0.9089,-0.9145,-0.9149,-0.9153,0,0,0,0,0,-0.9666,-0.9653,-0.9632,-0.9617,-0.9524,-0.947,-0.9458,-0.9405,-0.9392,-0.9383,-0.9335,-0.9301,-0.9202,-0.9203,-0.9188,-0.9185,-0.9087,-0.9088,-0.9089,-0.9143,-0.9148,-0.9153,0,0,0,0,0,0,-0.973,-0.9642,-0.9618,-0.9581,-0.9534,-0.9458,-0.9445,-0.9413,-0.9368,-0.9364,-0.9301,-0.9285,-0.925,-0.9213,-0.9216,-0.9162,-0.9141,-0.9139,-0.9187,-0.9191,-0.9196,-0.9205,-0.9168,0,0,0,0,0,-0.974,-0.9704,-0.9629,-0.9604,-0.9582,-0.9518,-0.9492,-0.9456,-0.9404,-0.9384,-0.9333,-0.9284,-0.9241,-0.9215,-0.9171,-0.914,-0.9122,-0.9131,-0.9135,-0.9139,-0.9137,-0.9118,-0.9121,-0.9092,-0.9092,-0.9092,0,0,-0.976,-0.9708,-0.9689,-0.9616,-0.9575,-0.9539,-0.9501,-0.9465,-0.9437,-0.9378,-0.9335,-0.9297,-0.9238,-0.9201,-0.9183,-0.917,-0.9142,-0.914,-0.9144,-0.914,-0.9119,-0.9122,-0.9125,-0.9092,-0.9092,-0.9092,0,0,-0.9778,-0.9735,-0.9709,-0.9669,-0.9608,-0.9565,-0.956,-0.9489,-0.9461,-0.9418,-0.9373,-0.9339,-0.9267,-0.9227,-0.9197,-0.9202,-0.9169,-0.919,-0.9212,-0.9194,-0.9196,-0.9198,-0.9199,-0.92,-0.9189,-0.9189,-0.9189,0,-0.981,-0.9754,-0.97,-0.9666,-0.9635,-0.9581,-0.9554,-0.9518,-0.9446,-0.9426,-0.9413,-0.9322,-0.9279,-0.9232,-0.9233,-0.9211,-0.9202,-0.9197,-0.92,-0.9201,-0.9202,-0.9203,-0.9203,-0.9192,-0.9191,-0.9191,-0.9191,0,-0.9797,-0.9759,-0.9745,-0.9677,-0.9645,-0.9616,-0.9557,-0.9531,-0.9498,-0.9458,-0.9415,-0.9361,-0.9306,-0.9292,-0.926,-0.9241,-0.9235,-0.9213,-0.919,-0.9209,-0.9208,-0.9208,-0.9196,-0.9195,-0.9194,-0.9193,0,0,-0.9849,-0.9753,-0.9749,-0.9718,-0.9647,-0.9616,-0.9585,-0.9531,-0.951,-0.9463,-0.9434,-0.9376,-0.9354,-0.9321,-0.9283,-0.9268,-0.9275,-0.9247,-0.9244,-0.9253,-0.9251,-0.9267,-0.9268,-0.9253,-0.9253,-0.9253,-0.9255,0,-0.9856,-0.9796,-0.9747,-0.9705,-0.9669,-0.9618,-0.959,-0.9544,-0.9506,-0.947,-0.9427,-0.9387,-0.9362,-0.9341,-0.9324,-0.9278,-0.9273,-0.9277,-0.9225,-0.9224,-0.924,-0.9268,-0.9285,-0.929,-0.9255,-0.9255,-0.9255,0,-0.9855,-0.9811,-0.9765,-0.9699,-0.9682,-0.9658,-0.9606,-0.9572,-0.9519,-0.9492,-0.9456,-0.9417,-0.9381,-0.9364,-0.9313,-0.9317,-0.9293,-0.9267,-0.9266,-0.9258,-0.924,-0.926,-0.9291,-0.9291,-0.9254,-0.9254,-0.9254,0,-0.9898,-0.9826,-0.979,-0.9765,-0.9686,-0.9671,-0.9637,-0.9584,-0.9555,-0.951,-0.9491,-0.9442,-0.9415,-0.9378,-0.9327,-0.9319,-0.9282,-0.926,-0.9258,-0.9259,-0.9251,-0.9252,-0.9277,-0.9238,-0.9238,-0.9238,-0.9238,0,-0.991,-0.9884,-0.9808,-0.9785,-0.9755,-0.97,-0.9671,-0.9633,-0.9586,-0.9556,-0.9509,-0.9481,-0.9417,-0.9381,-0.9341,-0.9306,-0.9294,-0.9271,-0.926,-0.9274,-0.9277,-0.9257,-0.9255,-0.9238,-0.9238,-0.9238,-0.9238,0,-0.9951,-0.9899,-0.9856,-0.9786,-0.9768,-0.9749,-0.9689,-0.9665,-0.9625,-0.9587,-0.9575,-0.9512,-0.9467,-0.9414,-0.9352,-0.9326,-0.9293,-0.9278,-0.9311,-0.9305,-0.9306,-0.9306,-0.9318,-0.9317,-0.928,-0.928,-0.9281,0,-0.9962,-0.9941,-0.9869,-0.9845,-0.9813,-0.9776,-0.9747,-0.9692,-0.9663,-0.9602,-0.9586,-0.9538,-0.9497,-0.9429,-0.9378,-0.9331,-0.9313,-0.9321,-0.9306,-0.9321,-0.9312,-0.9314,-0.9311,-0.9324,-0.9325,-0.9326,-0.9326,0,-0.9986,-0.9961,-0.9921,-0.9873,-0.984,-0.9799,-0.9756,-0.9739,-0.9675,-0.9646,-0.9601,-0.9569,-0.9507,-0.946,-0.9407,-0.9372,-0.9338,-0.9332,-0.9328,-0.9342,-0.9362,-0.935,-0.9321,-0.9331,-0.9331,-0.933,-0.933,-0.933,-1.0011,-0.999,-0.9936,-0.9894,-0.9856,-0.9817,-0.9791,-0.9749,-0.971,-0.9655,-0.9626,-0.9581,-0.9529,-0.9454,-0.9421,-0.9385,-0.9373,-0.9369,-0.9367,-0.9367,-0.9371,-0.9369,-0.9375,-0.9375,-0.9375,-0.9375,-0.9375,0,-1.0032,-0.9995,-0.9956,-0.9898,-0.9865,-0.9837,-0.9788,-0.9762,-0.9724,-0.9678,-0.964,-0.9588,-0.9543,-0.9489,-0.944,-0.9422,-0.9405,-0.9411,-0.9411,-0.9404,-0.9385,-0.9392,-0.9425,-0.9425,-0.9425,-0.9425,-0.9425,-0.9425,-1.0039,-1.0002,-0.9971,-0.9916,-0.9879,-0.9835,-0.981,-0.9774,-0.9737,-0.9682,-0.9645,-0.961,-0.9561,-0.9509,-0.9466,-0.9451,-0.9435,-0.9445,-0.9426,-0.9409,-0.9405,-0.9401,-0.9407,-0.9443,-0.9443,-0.9447,-0.9447,-0.9447]},{"header":{"parameterUnit":"m.s-1","parameterCategory":1,"la1":30.2991,"la2":30.254,"lo1":-89.0895,"lo2":-89.0444,"dy":0.0017,"dx":0.0017,"nx":28,"ny":28,"refTime":"2025-05-23T09:00:00:Z","depth":0,"parameterNumber":3,"parameterNumberName":"V-component_of_WINDS"},"data":[0,0,0,0,0,0,0,0,0,0,0,0,0,0,0,0,0,0,0,0,0,0,0,0,0,0,0,0,0,0,0,0,0,0,0,0,0,0,0,0,0,0,0,0,0,0,0,0,0,0,0,0,0,0,0,0,0,0,4.5522,4.5521,0,4.5472,4.5471,4.547,4.5403,4.5402,4.5401,4.54,4.5346,4.5346,4.5345,0,0,0,0,0,0,0,0,0,0,0,0,0,4.5558,4.5558,4.5522,4.5521,4.5521,4.5472,4.5471,4.547,4.5403,4.5402,4.5401,4.54,4.5346,4.5346,4.5345,0,0,0,0,0,0,0,0,0,0,0,0,0,4.5529,4.5558,4.5522,4.5481,4.5477,4.5472,4.5471,4.547,4.5404,4.5402,4.54,4.5399,4.5346,4.5346,4.5345,4.5374,0,0,4.5343,4.5343,0,0,0,0,0,0,0,0,4.553,4.5527,4.5488,4.5484,4.548,4.5442,4.5464,4.5438,4.5404,4.5432,4.54,4.5398,4.5379,4.5376,4.537,4.5372,4.5369,4.5343,4.5343,4.5342,4.5342,0,0,0,0,0,0,0,4.5533,4.5529,4.5502,4.5488,4.5482,4.5465,4.5459,4.5459,4.5415,4.5429,4.5424,4.5419,4.5376,4.5371,4.5368,4.5369,4.5343,4.5343,4.5342,4.5342,4.5392,4.5394,0,0,0,0,0,0,4.5541,4.5531,4.5503,4.55,4.5502,4.5466,4.5459,4.5456,4.5415,4.5407,4.5421,4.5416,4.5372,4.5369,4.5366,4.5398,4.5342,4.5342,4.5341,4.5391,4.5393,4.5395,0,0,0,0,0,0,4.5542,4.5539,4.5505,4.5515,4.5509,4.5467,4.5464,4.5456,4.545,4.5409,4.54,4.5423,4.5371,4.5367,4.5373,4.5395,4.5342,4.5341,4.5389,4.5391,4.5394,4.5461,0,0,0,0,0,0,4.5543,4.554,4.5551,4.5515,4.5509,4.5514,4.5465,4.5456,4.5449,4.5443,4.5408,4.5401,4.5369,4.5374,4.5372,4.5393,4.5341,4.5386,4.539,4.5393,4.5457,4.5466,4.5474,0,0,0,0,0,4.5545,4.5571,4.5552,4.5549,4.5522,4.5516,4.5512,4.5475,4.5451,4.5462,4.5435,4.5402,4.5393,4.5375,4.5373,4.5393,4.5385,4.5389,4.5393,4.5453,4.5464,4.5473,0,0,0,0,0,0,4.561,4.5566,4.5544,4.556,4.5542,4.5504,4.5517,4.5488,4.5476,4.5471,4.5425,4.5418,4.543,4.5412,4.5394,4.542,4.5384,4.5387,4.5431,4.5441,4.5449,4.5453,4.534,0,0,0,0,0,4.5626,4.5626,4.5587,4.5605,4.5597,4.5559,4.5555,4.5528,4.5508,4.55,4.5474,4.5454,4.5447,4.5443,4.5434,4.5454,4.5446,4.5467,4.5476,4.5483,4.5486,4.5496,4.5505,4.5407,4.5407,4.5407,0,0,4.566,4.5636,4.5638,4.5617,4.56,4.56,4.5553,4.5554,4.5554,4.5499,4.5504,4.5485,4.546,4.5474,4.5478,4.5459,4.5511,4.5487,4.5493,4.5493,4.55,4.551,4.5518,4.541,4.5409,4.5409,0,0,4.572,4.5702,4.5715,4.57,4.5675,4.565,4.5653,4.562,4.5605,4.5609,4.5569,4.5567,4.5555,4.5539,4.553,4.5586,4.5555,4.5584,4.5627,4.5637,4.5645,4.5652,4.5671,4.5679,4.5588,4.5588,4.5588,0,4.5765,4.5764,4.5725,4.573,4.5722,4.5674,4.5687,4.5673,4.5647,4.5642,4.5622,4.5606,4.5586,4.5596,4.561,4.5604,4.5606,4.5588,4.5647,4.5653,4.5659,4.5677,4.5685,4.5592,4.5591,4.5591,4.5591,0,4.5819,4.5819,4.5833,4.581,4.5803,4.5812,4.5774,4.5772,4.5747,4.5723,4.5728,4.5703,4.5688,4.5688,4.5663,4.5694,4.5683,4.5656,4.5618,4.5673,4.5689,4.5696,4.5597,4.5596,4.5595,4.5594,0,0,4.5919,4.5876,4.5881,4.587,4.584,4.5839,4.5845,4.5832,4.5831,4.5814,4.5818,4.581,4.5785,4.5774,4.5746,4.5755,4.5801,4.5726,4.5725,4.5741,4.5834,4.5855,4.5864,4.5781,4.5782,4.5783,4.5836,0,4.5974,4.5983,4.5949,4.5967,4.5966,4.5921,4.5927,4.5909,4.5887,4.5883,4.5858,4.5854,4.582,4.5814,4.582,4.5794,4.5819,4.579,4.5783,4.5784,4.5791,4.5873,4.5895,4.5946,4.5842,4.5844,4.5844,0,4.6039,4.6027,4.6046,4.6015,4.6013,4.6019,4.6004,4.6001,4.5979,4.5963,4.5952,4.5921,4.5924,4.5889,4.5893,4.5874,4.5869,4.5856,4.5858,4.5855,4.5817,4.5872,4.5962,4.597,4.5854,4.5853,4.5853,0,4.611,4.6099,4.6108,4.61,4.6065,4.607,4.6055,4.6032,4.6026,4.6013,4.6009,4.5996,4.5989,4.598,4.5945,4.5923,4.5954,4.5916,4.5939,4.5941,4.5947,4.5947,4.6037,4.5945,4.5945,4.5945,4.5945,0,4.6175,4.6188,4.614,4.6145,4.6158,4.6119,4.6133,4.6114,4.6094,4.6095,4.6055,4.6056,4.6011,4.6007,4.598,4.5988,4.5985,4.5971,4.5964,4.5975,4.5977,4.5971,4.5966,4.5947,4.5946,4.5946,4.5946,0,4.6256,4.6225,4.6232,4.6198,4.619,4.6201,4.6172,4.6175,4.6152,4.6153,4.6151,4.6114,4.6108,4.6073,4.6058,4.604,4.6057,4.6042,4.6065,4.606,4.6085,4.6084,4.6174,4.6184,4.6086,4.6087,4.6088,0,4.63,4.6309,4.6276,4.6274,4.6262,4.6259,4.6254,4.6216,4.6211,4.6188,4.6194,4.6185,4.6175,4.6167,4.6138,4.6127,4.6112,4.6144,4.6109,4.612,4.6112,4.6112,4.6112,4.6152,4.6153,4.6154,4.6155,0,4.638,4.6364,4.6358,4.6346,4.6341,4.633,4.6316,4.6317,4.6274,4.6271,4.6265,4.6258,4.6243,4.6235,4.6218,4.6202,4.6172,4.6166,4.6171,4.6182,4.6194,4.6188,4.6085,4.6164,4.6163,4.6162,4.6162,4.6161,4.6444,4.645,4.6428,4.6422,4.6408,4.6397,4.6399,4.6376,4.637,4.6356,4.6334,4.633,4.6309,4.6284,4.6271,4.6267,4.6249,4.6256,4.6258,4.626,4.6266,4.6196,4.6264,4.6264,4.6263,4.6263,4.6263,0,4.6522,4.6506,4.6501,4.6484,4.648,4.6452,4.6436,4.6434,4.6432,4.6414,4.6406,4.6399,4.6391,4.6361,4.635,4.6352,4.6338,4.6351,4.635,4.6347,4.6283,4.628,4.6362,4.6362,4.6362,4.6362,4.6362,4.6362,4.6562,4.6571,4.6553,4.6554,4.6538,4.6535,4.6528,4.6517,4.6503,4.6497,4.649,4.6472,4.645,4.6436,4.6427,4.6418,4.6416,4.6433,4.642,4.6361,4.6351,4.6342,4.6339,4.6433,4.6433,4.6484,4.6485,4.6485]}]]